Hourly Weather Roundup
Issued by NWS Central Illinois

Home | Current Version | Previous Version | Text Only | Print | Product List | Glossary On
Versions: 1 2 3 4 5 6 7 8 9 10 11 12 13 14 15 16 17 18 19 20 21 22 23 24 25 26 27 28 29 30 31 32 33 34 35 36 37 38 39 40 41 42 43 44 45 46 47 48 49 50
240
NZUS43 KILX 240510
HWRILX

Area Weather Roundup
National Weather Service Lincoln IL
1200 AM CDT THU AUG 24 2017

NOTE:  "FAIR" indicates few or no clouds below 12,000 feet, with
       no sigificant weather and/or obstructions to visibility.


CITY           SKY/WX    TMP DP  RH WIND       PRES   REMARKS
Bloomington    NOT AVBL
Champaign      CLEAR     56  53  90 W3        30.05S
Danville       CLEAR     56  55  95 N3        30.02R
Decatur        CLEAR     60  54  80 CALM      30.05S
Effingham      CLEAR     58  58 100 CALM      30.07R
Flora          CLEAR     62  57  83 NW5       30.05S
Galesburg      CLEAR     54  54 100 CALM      30.07R
Jacksonville   CLEAR     58  56  93 CALM      30.07R
Lacon          CLEAR     57  56  97 CALM      30.05R
Lawrenceville  CLEAR     61  60  97 CALM      30.04S
Litchfield     CLEAR     56  56  99 CALM      30.06S
$$


CITY           SKY/WX    TMP DP  RH WIND       PRES   REMARKS
Lincoln        CLEAR     59  58  95 CALM      30.05S
Macomb         CLEAR     55  55  97 CALM      30.08S
Mattoon        CLEAR     61  56  83 W3        30.04S
Mt Carmel AP   CLEAR     56  55  96 CALM      30.04S
Olney-Noble AP CLEAR     57  55  92 CALM      30.05S
Paris AP       PTCLDY    52  51  97 CALM      30.05S
Peoria         CLEAR     60  56  86 CALM      30.05S
Pontiac        CLEAR     58  57  98 CALM      30.05S
Rantoul        CLEAR     61  58  90 NW3       30.05R
Robinson       CLEAR     54  54 100 CALM      30.06R
Springfield    CLEAR     58  56  93 CALM      30.06S
Taylorville    CLEAR     57  56  97 CALM      30.06R
$$

...REGIONAL REPORTS...


CITY           SKY/WX    TMP DP  RH WIND       PRES   REMARKS
Chicago O`Hare PTCLDY    65  55  70 SW5       30.03S
Kankakee       CLEAR     59  55  88 CALM      30.05S
Moline         CLEAR     59  54  83 CALM      30.05R
Mount Sterling CLEAR     57  55  95 CALM      30.07R
Mount Vernon     N/A     57  56  96 CALM      30.06R
Pittsfield     CLEAR     59  58  96 CALM      30.08S
Quincy         CLEAR     65  53  65 CALM      30.06S
Rockford       CLEAR     57  55  93 CALM      30.06R
$$


CITY           SKY/WX    TMP DP  RH WIND       PRES   REMARKS
Burlington     CLEAR     60  56  86 CALM      30.06R
Cedar Rapids   CLEAR     59  53  80 N3        30.06R
Des Moines     CLOUDY    70  54  56 N5        30.08R
Kirksville     CLEAR     58  55  90 CALM      30.07S
Ottumwa        CLEAR     60  54  80 CALM      30.06R
St Louis       CLEAR     67  57  70 CALM      30.06F
$$


CITY           SKY/WX    TMP DP  RH WIND       PRES   REMARKS
Terre Haute    CLEAR     57  54  89 CALM      30.04S
Evansville     CLEAR     61  56  83 SW5       30.04R
Indianapolis   PTCLDY    62  53  72 N7        30.03R
Lafayette      CLEAR     58  58 100 CALM      30.04R
Madison        NOT AVBL
Milwaukee      PTCLDY    63  56  78 CALM      30.03S
$$






USA.gov is the U.S. government's official web portal to all federal, state and local government web resources and services.